Location: Vancouver
(49.2500°N, 123.1330°W)
Time: 15:07:41
(UTC-07:00)

Iridium 21 - Visible Passes

Search period start: 23 April 2014 00:00
Search period end: 03 May 2014 00:00
Orbit: 776 x 779 km, 86.4° (Epoch: 23 April)

Date Brightness Start Highest point End Pass type
(mag) Time Alt. Az. Time Alt. Az. Time Alt. Az.
23 Apr 6.3 22:10:28 10° NNW 22:15:31 51° W 22:20:32 10° SSW visible
24 Apr 5.6 21:36:48 10° N 21:42:03 87° W 21:47:16 10° S visible
24 Apr 8.2 23:19:31 10° NW 23:21:56 13° WNW 23:24:22 10° W visible
25 Apr 5.7 21:03:20 10° N 21:08:28 55° E 21:13:34 10° SSE visible
25 Apr 7.7 22:44:49 10° NNW 22:48:47 23° WNW 22:52:45 10° SW visible
26 Apr 6.9 22:10:45 10° NNW 22:15:31 37° W 22:20:16 10° SSW visible
27 Apr 6.0 21:36:57 10° N 21:42:08 64° W 21:47:15 10° S visible
28 Apr 5.5 21:03:22 10° N 21:08:37 76° E 21:13:49 10° S visible
28 Apr 8.1 22:45:29 10° NW 22:48:40 17° WNW 22:51:51 10° WSW visible
29 Apr 7.5 22:11:07 10° NNW 22:15:28 27° W 22:19:48 10° SW visible
30 Apr 6.6 21:37:11 10° NNW 21:42:09 46° W 21:47:05 10° SSW visible
01 May 5.7 21:03:28 10° N 21:08:42 79° W 21:13:54 10° S visible
01 May 8.4 22:46:38 10° NW 22:48:30 12° WNW 22:50:22 10° W visible
02 May 8.1 22:11:38 10° NNW 22:15:22 20° WNW 22:19:06 10° WSW visible
